DW8108 Weather Reports


time (UTC)temp
C
wind
direction
speed
KPH
gust
KPH
rain 1hr
cm
rain 24hr
cm
rain mn
cm
humidity
%
barometer
mb
20260904094506 23 0.0 3.2 0.00 0.00 0.00 95 1011.8
20260904093006 23 0.0 1.6 0.00 0.00 0.00 95 1012.0
20260904091505 23 0.0 0.0 0.00 0.00 0.00 94 1012.0
20260904090005 23 0.0 0.0 0.00 0.00 0.00 95 1011.9
20260904084504 23 0.0 3.2 0.00 0.00 0.00 95 1011.8
20260904083002 23 0.0 4.8 0.00 0.00 0.00 95 1011.6
20260904081506 23 0.0 6.4 0.00 0.00 0.00 95 1011.3
20260904080002 23 0.0 8.0 0.00 0.00 0.00 95 1011.1
20260904074612 23 0.0 11.3 0.00 0.00 0.00 95 1011.0
20260904073102 23 0.0 9.7 0.00 0.00 0.00 94 1011.2
20260904071554 23 0.0 6.4 0.00 0.00 0.00 94 1011.6
20260904070053 23 0.0 1.6 0.00 0.00 0.00 94 1012.0
20260904064551 23 0.0 4.8 0.00 0.00 0.00 94 1012.3
20260904063101 24 0.0 6.4 0.00 0.00 0.00 94 1012.3
20260904061548 24 0.0 6.4 0.00 0.00 0.00 93 1012.4
20260904060047 24 0.0 6.4 0.00 0.00 0.00 93 1012.4
20260904054545 24 0.0 6.4 0.00 0.00 0.00 93 1012.4
20260904053045 24 0.0 6.4 0.00 0.00 0.00 92 1012.4
20260904051558 24 0.0 6.4 0.00 0.00 0.00 92 1012.4
20260904050040 25 0.0 8.0 0.00 0.00 0.00 92 1012.3
20260904044540 25 0.0 9.7 0.00 0.00 0.00 92 1012.4
20260904043039 25 0.0 8.0 0.00 0.00 0.00 92 1012.4
20260904041542 25 0.0 8.0 0.00 0.00 0.00 91 1012.5
20260904040039 25 0.0 8.0 0.00 0.00 0.00 91 1012.6
20260904034537 25 0.0 8.0 0.00 0.00 0.00 91 1012.5
20260904033037 25 0.0 8.0 0.00 0.00 0.00 90 1012.4
20260904031537 25 0.0 4.8 0.00 0.00 0.00 90 1012.4
20260904030036 25 0.0 6.4 0.00 0.00 0.00 89 1012.5
20260904024536 26 0.0 6.4 0.00 0.00 0.00 89 1012.5
20260904023037 26 0.0 3.2 0.00 0.00 0.00 88 1012.4
20260904021537 26 0.0 8.0 0.00 0.00 0.00 88 1012.1
20260904020036 26 0.0 9.7 0.00 0.00 0.00 88 1012.0
20260904014633 26 0.0 9.7 0.00 0.00 0.00 87 1011.8
20260904013033 26 0.0 4.8 0.00 0.00 0.00 87 1011.7
20260904011537 27 0.0 9.7 0.00 0.00 0.00 86 1011.7
20260904010044 27 0.0 6.4 0.00 0.00 0.00 84 1011.4
20260904004531 28 0.0 8.0 0.00 0.00 0.00 83 1011.3
20260904003031 28 0.0 6.4 0.00 0.00 0.00 82 1011.3
20260904001532 29 0.0 4.8 0.00 0.00 0.00 81 1011.3
20260904000033 30 0.0 3.2 0.00 0.00 0.00 80 1011.3
20260903234529 31 0.0 3.2 0.00 0.00 0.00 79 1011.4
20260903233029 31 0.0 4.8 0.00 0.00 0.00 77 1011.4
20260903231529 31 0.0 6.4 0.00 0.00 0.00 75 1011.2
20260903230028 32 0.0 4.8 0.00 0.00 0.00 74 1011.2
20260903224527 32 0.0 6.4 0.00 0.00 0.00 71 1011.4
20260903223034 32 0.0 6.4 0.00 0.00 0.00 70 1011.4
20260903221527 32 0.0 6.4 0.00 0.00 0.00 69 1011.3
20260903220026 33 0.0 6.4 0.00 0.00 0.00 69 1011.4
20260903214525 33 0.0 6.4 0.00 0.00 0.00 69 1011.4
20260903213024 32 0.0 6.4 0.00 0.00 0.00 69 1011.3
20260903211524 32 0.0 8.0 0.00 0.00 0.00 70 1011.4
20260903210022 32 0.0 9.7 0.00 0.00 0.00 69 1011.5
20260903204523 32 0.0 8.0 0.00 0.00 0.00 70 1011.7
20260903203032 32 0.0 11.3 0.00 0.00 0.00 70 1011.7
20260903201520 31 0.0 9.7 0.00 0.00 0.00 71 1011.8
20260903200019 31 0.0 16.1 0.00 0.00 0.00 72 1011.8
20260903194516 31 0.0 19.3 0.00 0.00 0.00 71 1012.0
20260903193016 31 0.0 17.7 0.00 0.00 0.00 70 1012.3
20260903191515 31 0.0 24.1 0.00 0.00 0.00 70 1012.4
20260903190016 31 0.0 22.5 0.00 0.00 0.00 68 1012.6
20260903184516 32 0.0 30.6 0.00 0.00 0.00 67 1012.5
20260903183014 34 0.0 24.1 0.00 0.00 0.00 63 1012.6
20260903181512 34 0.0 11.3 0.00 0.00 0.00 65 1012.3
20260903180010 34 0.0 16.1 0.00 0.00 0.00 66 1012.3
20260903174517 34 0.0 17.7 0.00 0.00 0.00 63 1012.4
20260903173009 34 0.0 17.7 0.00 0.00 0.00 64 1012.5
20260903171507 33 0.0 12.9 0.00 0.00 0.00 67 1012.4
20260903170005 33 0.0 12.9 0.00 0.00 0.00 69 1012.3
20260903164502 33 0.0 8.0 0.00 0.00 0.00 68 1012.3
20260903163108 32 0.0 9.7 0.00 0.00 0.00 69 1012.3
20260903161558 32 0.0 11.3 0.00 0.00 0.00 69 1012.4
20260903160106 32 0.0 9.7 0.00 0.00 0.00 70 1012.5
20260903154553 31 0.0 11.3 0.00 0.00 0.00 72 1012.6
20260903153051 31 0.0 9.7 0.00 0.00 0.00 72 1012.7
20260903151547 30 0.0 11.3 0.00 0.00 0.00 74 1012.9
20260903150043 30 0.0 9.7 0.00 0.00 0.00 77 1012.9
20260903144544 29 0.0 14.5 0.00 0.00 0.00 78 1012.8
20260903143035 28 0.0 8.0 0.00 0.00 0.00 82 1012.7
20260903141531 27 0.0 8.0 0.00 0.00 0.00 85 1012.6
20260903140028 26 0.0 9.7 0.00 0.00 0.00 88 1012.6
20260903134523 26 0.0 9.7 0.00 0.00 0.00 91 1012.7
20260903133019 25 0.0 8.0 0.00 0.00 0.00 95 1012.8
20260903131517 24 0.0 9.7 0.00 0.00 0.00 96 1013.0
20260903130017 23 0.0 9.7 0.00 0.00 0.00 97 1013.1
20260903124516 23 0.0 4.8 0.00 0.00 0.00 97 1013.1
20260903123017 22 0.0 4.8 0.00 0.00 0.00 97 1013.1
20260903121513 22 0.0 6.4 0.00 0.00 0.00 97 1013.1
20260903120014 22 0.0 0.0 0.00 0.00 0.00 96 1013.2
20260903114512 22 0.0 0.0 0.00 0.00 0.00 96 1013.1
20260903113011 22 0.0 1.6 0.00 0.00 0.00 96 1013.0
20260903111510 22 0.0 4.8 0.00 0.00 0.00 96 1013.1
20260903110009 22 0.0 3.2 0.00 0.00 0.00 96 1012.9
20260903104507 22 0.0 1.6 0.00 0.00 0.00 96 1012.8
20260903103011 22 0.0 0.0 0.00 0.00 0.00 96 1012.8
20260903101505 22 0.0 4.8 0.00 0.00 0.00 96 1012.7
20260903100005 22 0.0 3.2 0.00 0.00 0.00 96 1012.6